Redmond, OR

5:14 AM PDT on July 22, 2017 (GMT -0700)
Roberts Field Airport

Weather History for KRDM - November, 2013

Change the Weather History Date:

Monday, November 4, 2013

  Actual Average Record
Temperature  
Mean Temperature 41 °F 41 °F  
Max Temperature 49 °F 54 °F 76 °F (1980)
Min Temperature 32 °F 28 °F 10 °F (1960)
Degree Days  
Heating Degree Days 24 24  
Month to date heating degree days 102 93  
Since 1 July heating degree days 1031 1038  
Cooling Degree Days 0 0  
Month to date cooling degree days 0 0  
Year to date cooling degree days 350 222  
Moisture  
Dew Point 29 °F    
Average Humidity 67    
Maximum Humidity 85    
Minimum Humidity 49    
Precipitation  
Precipitation T in 0.03 in 0.25 in (1990)
Month to date precipitation 0.02 0.12  
Year to date precipitation 4.25 6.90  
Sea Level Pressure  
Sea Level Pressure 30.12 in    
Wind  
Wind Speed 5 mph (West)    
Max Wind Speed 16 mph    
Max Gust Speed 21 mph    
Visibility 10 miles    
Events      
T = Trace of Precipitation, MM = Missing Value Source: NWS Daily Summary

Daily Weather History Graph

Daily Weather History Graph

Search for Another Location

Airport or City:

Trip Planner

Search our weather history database for the weather conditions in past years. The results will help you decide how hot, cold, wet, or windy it might be!

Date:

Astronomy

Nov. 04, 2013 Rise Set
Actual Time 6:46 AM PST 4:49 PM PST
Civil Twilight 6:15 AM PST 5:20 PM PST
Nautical Twilight 5:41 AM PST 5:54 PM PST
Astronomical Twilight 5:07 AM PST 6:28 PM PST
Moon 8:04 AM PST (11/4) 5:56 PM PST (11/4)
Length of Visible Light 11h 04m
Length of Day
10h 03m
New Moon, 2% of the Moon is Illuminated
Nov 4
New Moon
Nov 9
First Quarter
Nov 17
Full
Nov 25
Last Quarter
Dec 2
New

Hourly Weather History & Observations

Time (PST) Temp. Windchill Dew Point Humidity Pressure Visibility Wind Dir Wind Speed Gust Speed Precip Events Conditions
12:56 AM 34.0 °F - 28.0 °F 79% 30.09 in 10.0 mi Calm Calm - N/A   Overcast
1:56 AM 34.0 °F 31.0 °F 27.0 °F 75% 30.09 in 10.0 mi SSE 3.5 mph - N/A   Overcast
2:56 AM 34.0 °F - 28.0 °F 79% 30.08 in 10.0 mi Calm Calm - N/A   Overcast
3:56 AM 34.0 °F - 28.0 °F 79% 30.09 in 10.0 mi Calm Calm - N/A   Overcast
4:56 AM 35.1 °F 32.2 °F 28.0 °F 76% 30.09 in 10.0 mi SSW 3.5 mph - N/A   Overcast
5:56 AM 33.1 °F - 27.0 °F 78% 30.11 in 10.0 mi Calm Calm - N/A   Overcast
6:56 AM 32.0 °F 28.7 °F 28.0 °F 85% 30.12 in 10.0 mi SE 3.5 mph - N/A   Overcast
7:56 AM 37.0 °F 34.5 °F 28.9 °F 73% 30.12 in 10.0 mi South 3.5 mph - N/A   Overcast
8:56 AM 41.0 °F 37.1 °F 28.0 °F 60% 30.12 in 10.0 mi SW 5.8 mph - N/A   Overcast
9:56 AM 44.1 °F 40.1 °F 28.0 °F 53% 30.12 in 10.0 mi WNW 6.9 mph - N/A   Scattered Clouds
10:56 AM 46.0 °F 41.9 °F 28.0 °F 50% 30.11 in 10.0 mi WNW 8.1 mph - N/A   Partly Cloudy
11:56 AM 46.9 °F - 28.0 °F 48% 30.11 in 10.0 mi WNW 11.5 mph - N/A   Mostly Cloudy
12:56 PM 46.9 °F - 28.0 °F 48% 30.10 in 10.0 mi NW 11.5 mph - N/A   Overcast
1:56 PM 46.9 °F - 28.9 °F 50% 30.11 in 10.0 mi NW 11.5 mph - N/A   Mostly Cloudy
2:56 PM 46.0 °F 40.2 °F 28.0 °F 50% 30.12 in 10.0 mi WNW 12.7 mph - N/A   Overcast
3:56 PM 44.1 °F 38.6 °F 28.0 °F 53% 30.12 in 10.0 mi WNW 10.4 mph - N/A   Scattered Clouds
4:56 PM 42.1 °F 37.1 °F 28.9 °F 60% 30.14 in 10.0 mi NW 8.1 mph - N/A   Overcast
5:56 PM 41.0 °F 38.0 °F 28.9 °F 62% 30.16 in 10.0 mi NW 4.6 mph - N/A   Overcast
6:56 PM 41.0 °F - 30.0 °F 65% 30.17 in 10.0 mi Calm Calm - N/A   Overcast
7:56 PM 39.9 °F 37.8 °F 28.9 °F 65% 30.18 in 10.0 mi SE 3.5 mph - N/A   Overcast
8:56 PM 39.9 °F 36.7 °F 30.0 °F 68% 30.15 in 10.0 mi SE 4.6 mph - N/A   Overcast
9:56 PM 39.9 °F - 30.0 °F 68% 30.15 in 10.0 mi Calm Calm - N/A   Overcast
10:56 PM 37.9 °F - 28.9 °F 70% 30.14 in 10.0 mi Calm Calm - N/A   Mostly Cloudy
11:56 PM 37.9 °F - 30.9 °F 76% 30.14 in 10.0 mi Calm Calm - 0.00 in   Overcast